GW1149 Weather Reports


time (UTC)temp
C
wind
direction
speed
KPH
gust
KPH
rain 1hr
cm
rain 24hr
cm
rain mn
cm
humidity
%
barometer
mb
20260508104546 5 0 0.0 0.0 0.00 0.00 0.00 96 1019.6
20260508103049 5 0 0.0 0.0 0.00 0.00 0.00 96 1019.4
20260508101553 5 0 0.0 0.0 0.00 0.00 0.00 96 1019.2
20260508100047 5 0 0.0 0.0 0.00 0.00 0.00 96 1019.0
20260508094547 6 0 0.0 0.0 0.00 0.00 0.00 96 1018.9
20260508093048 6 0 0.0 0.0 0.00 0.00 0.00 96 1019.0
20260508091556 6 0 0.0 0.0 0.00 0.00 0.00 95 1018.8
20260508090057 6 0 0.0 0.0 0.00 0.00 0.00 95 1018.6
20260508084549 6 0 0.0 0.0 0.00 0.00 0.00 96 1018.4
20260508083050 7 0 0.0 0.0 0.00 0.00 0.00 95 1018.4
20260508081550 7 0 0.0 0.0 0.00 0.00 0.00 95 1018.2
20260508080053 7 0 0.0 0.0 0.00 0.00 0.00 96 1018.3
20260508074550 7 0 0.0 0.0 0.00 0.00 0.00 95 1018.3
20260508073050 7 0 0.0 0.0 0.00 0.00 0.00 94 1018.2
20260508071548 7 0 0.0 0.0 0.00 0.00 0.00 94 1018.1
20260508070053 7 0 0.0 0.0 0.00 0.00 0.00 94 1018.1
20260508064555 8 0 0.0 0.0 0.00 0.00 0.00 94 1018.1
20260508063049 8 0 0.0 0.0 0.00 0.00 0.00 94 1018.2
20260508061548 8 0 0.0 0.0 0.00 0.00 0.00 93 1018.1
20260508060047 9 0 0.0 0.0 0.00 0.00 0.00 93 1018.1
20260508054544 9 0 0.0 0.0 0.00 0.00 0.00 93 1017.9
20260508053042 10 0 0.0 0.0 0.00 0.00 0.00 93 1017.9
20260508051559 10 0 0.0 0.0 0.00 0.00 0.00 91 1017.9
20260508050046 10 0 0.0 1.6 0.00 0.00 0.00 91 1017.8
20260508044545 10 0 0.0 0.0 0.00 0.00 0.00 90 1017.5
20260508043050 11 0 0.0 0.0 0.00 0.00 0.00 89 1017.4
20260508041550 11 0 0.0 0.0 0.00 0.00 0.00 88 1017.4
20260508040051 12 0 0.0 0.0 0.00 0.00 0.00 86 1017.2
20260508034550 12 0 0.0 0.0 0.00 0.00 0.00 84 1016.9
20260508033051 13 0 0.0 0.0 0.00 0.00 0.00 81 1016.7
20260508031545 15 0 0.0 0.0 0.00 0.00 0.00 77 1016.5
20260508030052 16 0 0.0 0.0 0.00 0.00 0.00 73 1016.4
20260508024556 17 0 0.0 0.0 0.00 0.00 0.00 69 1016.2
20260508023048 18 0 0.0 0.0 0.00 0.00 0.00 63 1016.2
20260508021547 20 0 0.0 0.0 0.00 0.00 0.00 55 1016.2
20260508020053 21 0 0.0 3.2 0.00 0.00 0.00 48 1016.4
20260508014552 22 0 0.0 6.4 0.00 0.00 0.00 46 1016.5
20260508013054 22 0 0.0 1.6 0.00 0.00 0.00 46 1016.6
20260508011605 22 299 0.0 4.8 0.00 0.00 0.00 43 1016.7
20260508010045 22 252 1.6 6.4 0.00 0.00 0.00 45 1016.9
20260508004555 22 290 1.6 4.8 0.00 0.00 0.00 45 1017.0
20260508003047 22 294 0.0 6.4 0.00 0.00 0.00 42 1017.0
20260508001550 21 0 3.2 8.0 0.00 0.00 0.00 58 1017.1
20260508000052 21 274 1.6 11.3 0.00 0.00 0.00 63 1017.3
20260507234555 21 0 1.6 9.7 0.00 0.00 0.00 65 1017.2
20260507233045 21 233 1.6 12.9 0.00 0.00 0.00 68 1017.3
20260507231551 21 304 3.2 12.9 0.00 0.00 0.00 65 1017.4
20260507230048 21 250 1.6 9.7 0.00 0.00 0.00 65 1017.6
20260507224548 21 311 1.6 14.5 0.00 0.00 0.00 65 1017.8
20260507223043 21 278 3.2 8.0 0.00 0.00 0.00 64 1017.9
20260507221550 20 269 3.2 8.0 0.00 0.00 0.00 63 1018.1
20260507220047 20 290 3.2 11.3 0.00 0.00 0.00 64 1018.2
20260507214546 20 300 0.0 9.7 0.00 0.00 0.00 66 1018.3
20260507213048 20 233 1.6 9.7 0.00 0.00 0.00 67 1018.5
20260507211554 20 221 1.6 11.3 0.00 0.00 0.00 67 1018.7
20260507210056 19 297 1.6 11.3 0.00 0.00 0.00 68 1019.0
20260507204553 19 305 1.6 4.8 0.00 0.00 0.00 67 1019.2
20260507203058 18 295 1.6 8.0 0.00 0.00 0.00 69 1019.4
20260507201556 18 279 1.6 6.4 0.00 0.00 0.00 69 1019.6
20260507200057 18 239 0.0 4.8 0.00 0.00 0.00 66 1019.7
20260507194551 18 293 0.0 4.8 0.00 0.00 0.00 69 1019.7
20260507193054 18 0 0.0 6.4 0.00 0.00 0.00 71 1019.8
20260507191551 17 240 1.6 8.0 0.00 0.00 0.00 70 1020.2
20260507190047 16 0 0.0 4.8 0.00 0.00 0.00 79 1020.2
20260507184548 16 0 0.0 4.8 0.00 0.00 0.00 77 1020.2
20260507183049 15 227 0.0 4.8 0.00 0.00 0.00 78 1020.3
20260507181547 15 0 0.0 1.6 0.00 0.00 0.00 78 1020.4
20260507180047 15 300 0.0 3.2 0.00 0.00 0.00 79 1020.5
20260507174558 14 248 0.0 3.2 0.00 0.00 0.00 82 1020.5
20260507173047 13 0 0.0 1.6 0.00 0.00 0.00 84 1020.7
20260507171559 13 0 0.0 1.6 0.00 0.00 0.00 84 1020.8
20260507170055 12 250 0.0 1.6 0.00 0.00 0.00 86 1020.6
20260507164544 12 0 0.0 0.0 0.00 0.00 0.00 87 1020.7
20260507163050 12 0 0.0 1.6 0.00 0.00 0.00 88 1020.7
20260507161547 12 243 0.0 1.6 0.00 0.00 0.00 88 1020.8
20260507160049 12 0 0.0 1.6 0.00 0.00 0.00 89 1020.8
20260507154547 11 0 0.0 1.6 0.00 0.00 0.00 90 1020.9
20260507153045 11 0 0.0 1.6 0.00 0.00 0.00 90 1020.9
20260507151552 11 0 0.0 1.6 0.00 0.00 0.00 91 1021.0
20260507150050 11 245 0.0 1.6 0.00 0.00 0.00 92 1020.9
20260507144612 11 0 0.0 1.6 0.00 0.00 0.00 91 1020.9
20260507143049 10 240 0.0 1.6 0.00 0.00 0.00 92 1020.9
20260507141606 10 0 0.0 1.6 0.00 0.00 0.00 93 1020.8
20260507140045 10 0 0.0 0.0 0.00 0.00 0.00 93 1020.7
20260507134547 10 0 0.0 0.0 0.00 0.00 0.00 93 1020.6
20260507133051 10 0 0.0 0.0 0.00 0.00 0.00 93 1020.5
20260507131547 10 0 0.0 0.0 0.00 0.00 0.00 93 1020.6
20260507130047 10 0 0.0 0.0 0.00 0.00 0.00 93 1020.7
20260507124551 10 238 0.0 0.0 0.00 0.00 0.00 93 1020.8
20260507123050 10 0 0.0 0.0 0.00 0.00 0.00 93 1020.9
20260507121548 10 0 0.0 0.0 0.00 0.00 0.00 93 1021.0
20260507120050 10 0 0.0 0.0 0.00 0.00 0.00 93 1021.0
20260507114555 10 0 0.0 0.0 0.00 0.00 0.00 93 1021.1
20260507113047 10 0 0.0 0.0 0.00 0.00 0.00 93 1021.3
20260507111550 10 0 0.0 1.6 0.00 0.00 0.00 93 1021.2
20260507110054 10 0 0.0 1.6 0.00 0.00 0.00 92 1021.2